Location: Newark
(52.3500°N, 175.9667°E)
Time: 22:30:28
(UTC+00:00)

Altair - Pass Details

Date: 01 May 2021
Orbit: 1501 x 1683 km, 47.2° (Epoch: 05 May)

Event Time Altitude Azimuth Distance (km) Brightness Sun altitude
Rises 18:18:30 0° 269° (W) 4,898 9.5 12.9°
Reaches altitude 10° 18:21:42 10° 266° (W) 3,891 9.1 13.4°
Maximum altitude 18:31:27 64° 188° (S) 1,744 8.0 14.8°
Drops below altitude 10° 18:40:49 10° 110° (ESE) 3,746 11.0 16.3°
Sets 18:43:51 0° 108° (ESE) 4,706 11.4 16.7°
